Powrót do katalogu

OPS 4682 DEB

AktywnyPO
NORAD 52782·DEBRIS·🇺🇸 United States

Wystrzelony Apr 3, 1965 z Vandenberg Space Force Base

Loading…

Następne Przeloty (najbliższe 24 godziny)

TLE

Starzejące sięSource: Space-Track

Epoka: Sep 7, 2026, 14:42 UTC

1 52782U 65027GY  26250.61310681  .00000397  00000-0  13367-2 0  9996
2 52782  90.2422   6.6849 0031467 196.0140 179.5030 12.97616986605720

Śledź OPS 4682 DEB w czasie rzeczywistym z AllMySat

Download on the App Store